sat.trackr.live / text

‹ back to catalog

ONEWEB-0334

NORAD 49200 · 2021-083Q

PAYLOAD ACTIVE UNKNOWN

§ Identity

Operator
Country
UK
Launch date
2021-09-14
Launch site
TYMSC
Launch vehicle
Mass (kg)
RCS (m²)

Purposes: comms

External: N2YO · Heavens-Above · Gunter

§ Orbital elements

Epoch: 2026-05-25T02:42:34.477056Z

Period
109.03 min
Inclination
87.9170°
Eccentricity
0.0001192
Mean motion
13.20769311 rev/d
Perigee alt
1,180.9 km
Apogee alt
1,182.7 km
Semi-major
7,559.9 km
B*
1.0160e-4
RAAN
279.0477°
Arg perigee
75.7264°
Mean anomaly
284.4002°
Rev number
23,374

§ Raw data

ONEWEB-03341 49200U 21083Q   26145.11289904  .00000054  00000+0  10160-3 0  99902 49200  87.9170 279.0477 0001192  75.7264 284.4002 13.20769311233741

JSON: /api/v1/satellites/49200 · /tle

For live sub-satellite position, see the globe view (requires WebGL).

§ Visibility from observer

Set your observer location to see the next 7 days of passes ≥ 10°. The values pass through the URL so the page stays shareable.

No JS? Fill the form by hand. The geolocation button needs JavaScript.